User: anonymous   Login
Location: Arezzo
(43.4170°N, 11.8830°E)
Time: 23:24:13
(UTC+02:00)
Language:

STARLINK-2648 - Orbit

View from above orbital plane
View from above orbital plane
View from above satellite
View from above satellite

Ground track
Ground track

The orbit data is extracted from the following two-line orbital elements,

1 48679C 21044AT  21266.38690486 -.00026255  00000-0 -17602-2 0  2663
2 48679  53.0546 221.3382 0001535  57.6981 359.9653 15.06401554    12
Epoch (UTC): 23 September 2021 09:17:08
Eccentricity: 0.0001535
inclination: 53.0546°
perigee height: 546 km
apogee height: 548 km
right ascension of ascending node: 221.3382°
argument of perigee: 57.6981°
revolutions per day: 15.06401554
mean anomaly at epoch: 359.9653°
orbit number at epoch: 1

The dashed part of the orbit path shows where the satellite is in the earth's shadow,  

DLR